Weather reports worldwide

Advertisment
Chillingham Barns, United Kingdom (99196): temperature & dewpoint: 12.01.2018 13:00:00 - 18.01.2018 13:00:00 (GMT)Chillingham Barns, United Kingdom (99196): precipitation: 12.01.2018 13:00:00 - 18.01.2018 13:00:00 (GMT)
Date & Time tt [°C] td [°C] rr [mm]
18.01.2018 13:00:00 3,6 0,1 0,0
18.01.2018 12:00:00 4,2 0,3 0,0
18.01.2018 11:00:00 2,3 0,1 0,0
18.01.2018 10:00:00 2,0 -0,1 0,0
18.01.2018 09:00:00 1,6 -0,6 0,0
18.01.2018 08:00:00 1,7 -0,6 0,0
18.01.2018 07:00:00 1,8 0,0 0,0
18.01.2018 06:00:00 1,7 0,5 0,2
18.01.2018 05:00:00 1,0 0,8 0,0
18.01.2018 04:00:00 0,6 0,5 0,0
18.01.2018 03:00:00 0,4 0,2 0,0
18.01.2018 02:00:00 0,6 0,2 0,4
18.01.2018 01:00:00 1,6 0,9 0,4
18.01.2018 00:00:00 2,4 0,9 0,0
17.01.2018 23:00:00 2,5 0,4 0,0
17.01.2018 22:00:00 2,8 -0,2 0,0
17.01.2018 21:00:00 2,7 0,0 0,0
17.01.2018 20:00:00 2,6 -0,3 0,0
17.01.2018 19:00:00 2,9 -0,4 0,0
17.01.2018 18:00:00 3,0 -0,4 0,0
17.01.2018 17:00:00 2,7 -0,5 0,0
17.01.2018 16:00:00 2,9 -0,3 0,0
17.01.2018 15:00:00 3,2 -0,2 0,0
17.01.2018 14:00:00 3,9 0,2 0,0
17.01.2018 13:00:00 3,6 -0,1 0,0
17.01.2018 12:00:00 3,9 -0,4 0,0
17.01.2018 11:00:00 2,9 -0,8 0,0
17.01.2018 10:00:00 2,3 -1,6 0,2
17.01.2018 09:00:00 1,8 -2,3 0,0
17.01.2018 08:00:00 1,3 -2,2 0,0
17.01.2018 07:00:00 1,3 -1,9 0,0
17.01.2018 06:00:00 2,0 -1,7 0,0
17.01.2018 05:00:00 1,6 -1,2 0,0
17.01.2018 04:00:00 1,0 -2,5 0,0
17.01.2018 03:00:00 0,5 -2,2 0,0
17.01.2018 02:00:00 0,3 -2,1 0,0
17.01.2018 01:00:00 0,0 -1,4 0,0
17.01.2018 00:00:00 0,6 -2,2 0,0
16.01.2018 23:00:00 0,5 -2,3 0,0
16.01.2018 22:00:00 0,1 -0,7 0,0
16.01.2018 21:00:00 -0,1 -1,0 0,0
16.01.2018 20:00:00 0,5 -0,9 0,0
16.01.2018 19:00:00 0,3 -0,7 0,0
16.01.2018 18:00:00 0,9 -1,0 0,0
16.01.2018 17:00:00 1,1 -0,8 0,0
16.01.2018 16:00:00 0,7 -0,6 0,2
16.01.2018 15:00:00 1,1 -0,2 0,2
16.01.2018 14:00:00 2,0 -0,5 0,0
16.01.2018 13:00:00 2,3 -1,2 0,0
16.01.2018 12:00:00 3,5 -0,6 0,0
16.01.2018 11:00:00 2,7 -0,7 0,0
16.01.2018 10:00:00 2,2 -1,4 0,0
16.01.2018 09:00:00 2,0 -1,7 0,0
16.01.2018 08:00:00 1,8 -1,5 0,0
16.01.2018 07:00:00 1,7 -1,4 0,0
16.01.2018 06:00:00 2,1 -1,5 0,0
16.01.2018 05:00:00 2,0 -1,3 0,0
16.01.2018 04:00:00 2,1 -1,3 0,0
16.01.2018 03:00:00 2,3 -1,5 0,0
16.01.2018 02:00:00 2,7 -1,0 0,0
16.01.2018 01:00:00 3,0 -1,1 0,0
16.01.2018 00:00:00 2,6 -0,4 0,0
15.01.2018 23:00:00 2,9 0,1 0,0
15.01.2018 22:00:00 3,1 -0,2 0,0
15.01.2018 21:00:00 3,2 0,1 0,0
15.01.2018 20:00:00 3,1 -0,1 0,0
15.01.2018 19:00:00 3,7 0,3 0,0
15.01.2018 18:00:00 3,5 0,1 0,0
15.01.2018 17:00:00 3,9 0,4 0,0
15.01.2018 16:00:00 4,6 1,7 0,0
15.01.2018 15:00:00 6,1 2,5 0,0
15.01.2018 14:00:00 6,6 2,9 0,0
15.01.2018 13:00:00 7,3 3,7 0,0
15.01.2018 12:00:00 7,4 4,9 0,0
15.01.2018 11:00:00 6,0 4,8 0,4
15.01.2018 10:00:00 6,4 4,8 0,2
15.01.2018 09:00:00 6,7 5,8 0,2
15.01.2018 08:00:00 7,1 5,2 0,0
15.01.2018 07:00:00 7,2 5,5 0,0
15.01.2018 06:00:00 7,0 6,5 0,0
15.01.2018 05:00:00 6,5 6,2 0,0
15.01.2018 04:00:00 5,6 5,4 0,0
15.01.2018 03:00:00 5,9 4,8 0,0
15.01.2018 02:00:00 5,8 4,3 0,0
15.01.2018 01:00:00 5,7 3,4 0,0
15.01.2018 00:00:00 5,8 3,4 0,0
14.01.2018 23:00:00 5,9 3,0 0,0
14.01.2018 22:00:00 5,6 2,8 0,0
14.01.2018 21:00:00 5,1 2,6 0,2
14.01.2018 20:00:00 3,9 1,9 0,0
14.01.2018 19:00:00 3,9 1,7 0,0
14.01.2018 18:00:00 3,8 1,4 0,0
14.01.2018 17:00:00 3,6 1,3 0,0
14.01.2018 16:00:00 3,5 1,3 0,0
14.01.2018 15:00:00 4,0 1,4 0,0
14.01.2018 14:00:00 4,4 1,7 0,0
14.01.2018 13:00:00 3,9 1,7 0,0
14.01.2018 12:00:00 4,0 1,6 0,0
14.01.2018 11:00:00 2,9 1,1 0,0
14.01.2018 10:00:00 2,3 0,7 0,0
14.01.2018 09:00:00 2,2 0,7 0,0
14.01.2018 08:00:00 2,3 0,7 0,0
14.01.2018 07:00:00 2,7 0,7 0,0
14.01.2018 06:00:00 3,2 1,2 0,0
14.01.2018 05:00:00 3,4 1,5 0,0
14.01.2018 04:00:00 3,6 1,8 0,0
14.01.2018 03:00:00 3,5 1,9 0,0
14.01.2018 02:00:00 3,7 2,1 -
14.01.2018 01:00:00 4,1 2,3 0,0
14.01.2018 00:00:00 4,4 2,2 0,0
13.01.2018 23:00:00 4,2 2,0 0,0
13.01.2018 22:00:00 4,3 2,2 0,0
13.01.2018 21:00:00 4,9 2,6 0,0
13.01.2018 20:00:00 4,9 2,6 0,0
13.01.2018 19:00:00 4,6 2,4 0,0
13.01.2018 18:00:00 4,9 2,3 0,0
13.01.2018 17:00:00 4,9 2,3 0,0
13.01.2018 16:00:00 5,1 2,3 0,0
13.01.2018 15:00:00 5,2 2,4 0,0
13.01.2018 14:00:00 5,2 2,4 0,0
13.01.2018 13:00:00 5,0 2,6 0,0
13.01.2018 12:00:00 5,1 2,6 0,0
13.01.2018 11:00:00 4,9 2,7 0,0
13.01.2018 10:00:00 4,7 2,9 0,0
13.01.2018 09:00:00 4,3 3,1 0,0
13.01.2018 08:00:00 4,5 3,2 0,0
13.01.2018 07:00:00 4,9 3,7 0,0
13.01.2018 06:00:00 5,0 4,0 0,0
13.01.2018 05:00:00 5,0 4,2 0,0
13.01.2018 04:00:00 4,8 3,9 0,0
13.01.2018 03:00:00 4,7 3,6 0,0
13.01.2018 02:00:00 4,5 3,4 0,0
13.01.2018 01:00:00 4,4 3,1 0,0
13.01.2018 00:00:00 4,3 3,2 0,0
12.01.2018 23:00:00 4,2 3,0 0,0
12.01.2018 22:00:00 4,1 3,1 0,0
12.01.2018 21:00:00 2,8 2,4 0,0
12.01.2018 20:00:00 3,3 2,5 0,0
12.01.2018 19:00:00 3,3 2,3 0,0
12.01.2018 18:00:00 3,6 2,7 0,0
12.01.2018 17:00:00 4,6 3,7 0,0
12.01.2018 16:00:00 5,0 3,8 0,0
12.01.2018 15:00:00 6,1 4,5 0,0
12.01.2018 14:00:00 6,9 5,5 0,0
12.01.2018 13:00:00 - - 0,0

tt = temperature
td = dewpoint
rr = precipitation

Next stations